Hourly Data Report for October 17, 2012

All times are specified in Local Standard Time (LST). Add 1 hour to adjust for Daylight Saving Time where and when it is observed.

KITCHENER/WATERLOO
ONTARIO

43°27'39.000" N
80°22'43.000" W
321.60 m
6144239
71368
YKF

Download Data

Hourly Data (October 2012)
Hourly Data Report for October 17, 2012
Temp Definition
°C
Dew Point Temp Definition
°C
Rel Hum Definition
%
Wind Dir Definition
10's deg

Wind Spd Definition
km/h
Visibility Definition
km
Stn Press Definition
kPa
Hmdx Definition


Wind Chill Definition


Weather Definition


TIME
00:00 Legend Double Dagger 1.9 1.5 97   0 11.3 97.33     LegendNANA
01:00 Legend Double Dagger 1.8 1.7 99 9 9 9.7 97.31     LegendNANA
02:00 Legend Double Dagger 2.3 2.0 98 7 8 8.1 97.31     LegendNANA
03:00 Legend Double Dagger 4.0 3.6 97 7 8 9.7 97.23     LegendNANA
04:00 Legend Double Dagger 5.9 5.3 96 15 11 8.1 97.18     LegendNANA
05:00 Legend Double Dagger 6.7 6.0 95 14 9 9.7 97.21     LegendNANA
06:00 Legend Double Dagger 7.1 6.4 95 14 13 8.1 97.16     LegendNANA
07:00 Legend Double Dagger 7.4 7.0 97 14 13 4.8 97.18     LegendNANA
08:00 Legend Double Dagger 8.4 7.8 96 14 13 8.1 97.21     LegendNANA
09:00 Legend Double Dagger 8.7 8.1 96 13 17 8.1 97.20     LegendNANA
10:00 Legend Double Dagger 9.7 8.9 95 14 17 12.9 97.12     LegendNANA
11:00 Legend Double Dagger 11.3 9.7 90 16 21 16.1 97.11     LegendNANA
12:00 Legend Double Dagger 13.8 10.1 78 17 17 16.1 97.07     LegendNANA
13:00 Legend Double Dagger 16.6 10.3 66 17 22 16.1 96.99     LegendNANA
14:00 Legend Double Dagger 17.9 10.2 60 17 26 16.1 96.94     LegendNANA
15:00 Legend Double Dagger 18.3 10.0 58 17 21 16.1 96.91     LegendNANA
16:00 Legend Double Dagger 18.7 9.9 56 16 18 16.1 96.87     LegendNANA
17:00 Legend Double Dagger 16.8 8.2 57 17 21 16.1 96.89     LegendNANA
18:00 Legend Double Dagger 13.3 8.0 70 15 13 16.1 96.91     LegendNANA
19:00 Legend Double Dagger 13.2 8.1 71 14 17 16.1 96.90     LegendNANA
20:00 Legend Double Dagger 12.6 8.3 75 14 18 16.1 96.90     LegendNANA
21:00 Legend Double Dagger 10.9 7.7 81 14 11 16.1 96.91     LegendNANA
22:00 Legend Double Dagger 10.6 7.5 81 13 11 16.1 96.90     LegendNANA
23:00 Legend Double Dagger 10.5 7.8 83 13 13 16.1 96.89     LegendNANA

Notes on Data Quality.

Legend

  • E = Estimated
  • M = Missing
  • NA = Not Available
  • ‡ = Partner data that is not subject to review by the National Climate Archives
Date modified: